Weather History for KTBN - April, 2014

Change the Weather History Date:

Saturday, April 12, 2014

  Actual Average (KVIH) Record (KVIH)
Temperature  
Mean Temperature 70 °F 54 °F  
Max Temperature 80 °F 66 °F 92 °F (1972)
Min Temperature 59 °F 43 °F 24 °F (1957)
Degree Days  
Heating Degree Days 0 11  
Month to date heating degree days 156  
Since 1 July heating degree days 4560  
Cooling Degree Days 4 1  
Month to date cooling degree days 6  
Year to date cooling degree days 10  
Growing Degree Days 20 (Base 50)    
Moisture  
Dew Point 57 °F    
Average Humidity 66    
Maximum Humidity 93    
Minimum Humidity 45    
Precipitation  
Precipitation 0.00 in 0.14 in 1.18 in (1970)
Month to date precipitation 1.58  
Year to date precipitation 9.13  
Sea Level Pressure  
Sea Level Pressure 29.84 in    
Wind  
Wind Speed 11 mph (South)    
Max Wind Speed 20 mph    
Max Gust Speed 31 mph    
Visibility 10 miles    
Events      
T = Trace of Precipitation, MM = Missing Value Source: NWS Daily Summary

Daily Weather History Graph

Daily Weather History Graph

Search for Another Location

Airport or City:

Trip Planner

Search our weather history database for the weather conditions in past years. The results will help you decide how hot, cold, wet, or windy it might be!

Date:

Astronomy

Apr. 12, 2014 Rise Set
Actual Time 6:37 AM CDT 7:41 PM CDT
Civil Twilight 6:10 AM CDT 8:08 PM CDT
Nautical Twilight 5:38 AM CDT 8:40 PM CDT
Astronomical Twilight 5:05 AM CDT 9:13 PM CDT
Moon 5:22 PM CDT (4/12) 5:01 AM CDT (4/12)
Length of Visible Light 13h 57m
Length of Day
13h 03m
Waxing Gibbous, 93% of the Moon is Illuminated
Apr 12
Waxing Gibbous
Apr 15
Full
Apr 22
Last Quarter
Apr 29
New
May 6
First Quarter

Hourly Weather History & Observations

Time (CDT) Temp. Heat Index Dew Point Humidity Pressure Visibility Wind Dir Wind Speed Gust Speed Precip Events Conditions
12:58 AM 63.9 °F - 58.1 °F 81% 29.98 in 10.0 mi SSE 11.5 mph - N/A   Clear
1:58 AM 61.5 °F - 58.1 °F 89% 29.97 in 10.0 mi SSE 6.9 mph - N/A   Clear
2:58 AM 60.4 °F - 58.1 °F 92% 29.96 in 10.0 mi SSE 8.1 mph - N/A   Clear
3:58 AM 60.6 °F - 57.4 °F 89% 29.95 in 10.0 mi South 6.9 mph - N/A   Clear
4:58 AM 59.5 °F - 57.6 °F 93% 29.93 in 10.0 mi SSE 6.9 mph - N/A   Clear
5:58 AM 60.4 °F - 57.4 °F 90% 29.92 in 10.0 mi South 8.1 mph - N/A   Clear
6:58 AM 60.1 °F - 57.2 °F 90% 29.92 in 10.0 mi SSE 8.1 mph - N/A   Clear
7:58 AM 64.8 °F - 57.6 °F 77% 29.92 in 8.0 mi South 10.4 mph 18.4 mph N/A   Clear
8:58 AM 68.2 °F - 57.9 °F 70% 29.92 in 10.0 mi South 12.7 mph 23.0 mph N/A   Scattered Clouds
9:58 AM 71.6 °F - 58.6 °F 64% 29.91 in 10.0 mi South 11.5 mph 23.0 mph N/A   Clear
10:58 AM 75.0 °F - 58.3 °F 56% 29.89 in 10.0 mi South 15.0 mph 23.0 mph N/A   Partly Cloudy
11:58 AM 76.5 °F - 57.9 °F 53% 29.88 in 10.0 mi SSE 17.3 mph 25.3 mph N/A   Clear
12:37 PM 78.8 °F - 57.2 °F 47% 29.86 in 10.0 mi SSE 16.1 mph 24.2 mph N/A   Partly Cloudy
12:58 PM 78.8 °F - 57.2 °F 47% 29.83 in 10.0 mi South 10.4 mph 24.2 mph N/A   Clear
1:58 PM 80.8 °F 81.0 °F 57.7 °F 45% 29.81 in 10.0 mi South 19.6 mph 31.1 mph N/A   Clear
2:58 PM 79.0 °F - 58.8 °F 50% 29.79 in 10.0 mi South 12.7 mph 26.5 mph N/A   Partly Cloudy
3:58 PM 77.7 °F - 59.2 °F 53% 29.75 in 10.0 mi SSE 18.4 mph 27.6 mph N/A   Partly Cloudy
4:58 PM 76.3 °F - 58.6 °F 54% 29.74 in 10.0 mi South 15.0 mph 28.8 mph N/A   Partly Cloudy
5:58 PM 75.2 °F - 57.2 °F 53% 29.73 in 10.0 mi South 16.1 mph 29.9 mph N/A   Clear
6:58 PM 74.1 °F - 54.1 °F 50% 29.73 in 10.0 mi South 12.7 mph 24.2 mph N/A   Partly Cloudy
7:58 PM 72.1 °F - 54.0 °F 53% 29.73 in 10.0 mi South 11.5 mph 21.9 mph N/A   Mostly Cloudy
8:58 PM 70.5 °F - 53.6 °F 55% 29.73 in 10.0 mi South 16.1 mph 23.0 mph N/A   Partly Cloudy
9:58 PM 68.4 °F - 55.2 °F 63% 29.73 in 10.0 mi South 12.7 mph 21.9 mph N/A   Clear
10:58 PM 66.9 °F - 56.3 °F 69% 29.73 in 10.0 mi South 10.4 mph 21.9 mph N/A   Clear
11:58 PM 66.4 °F - 57.0 °F 72% 29.73 in 10.0 mi South 13.8 mph 24.2 mph N/A   Clear